Hourly Data Report for January 12, 2003

SHERBROOKE A
QUEBEC

45°26'00.000" N
71°41'00.000" W
241.40 m
7028124
71610
YSC

Download Data

Hourly Data (January 2003)
Hourly Data Report for January 12, 2003
TIME
LST
Temp Definition
°C
Dew Point Definition
°C
Rel Hum Definition
%
Precip. Amount Definition
mm

Wind Dir Definition
10's deg

Wind Spd Definition
km/h
Visibility Definition
km
Stn Press Definition
kPa
Hmdx Definition


Wind Chill Definition


Weather Definition


00:00 -15.3 -19.6 70   23 7 15.0 97.88   -20 Snow
01:00 -14.9 -18.9 71   22 6 5.6 97.87   -19 Snow
02:00 -14.6 -18.5 72   22 9 5.6 97.92   -20 Snow
03:00 -13.9 -17.9 72   23 13 4.8 97.96   -21 Snow
04:00 -13.3 -17.6 70   25 13 2.3 97.99   -20 Snow
05:00 -13.5 -17.8 70   24 9 5.6 98.04   -19 Snow
06:00 -13.5 -17.9 69   25 15 5.6 98.12   -21 Snow
07:00 -13.3 -17.5 71   26 19 2.6 98.19   -22 Snow
08:00 -13.3 -18.0 68   26 17 24.1 98.26   -21 Snow Showers
09:00 -12.8 -17.5 68   26 30 12.9 98.35   -23 Snow Showers
10:00 -12.3 -18.1 62   26 24 16.1 98.40   -22 Snow Showers
11:00 -11.5 -17.0 64   25 20 9.7 98.42   -20 Snow Showers
12:00 -10.9 -16.4 64   26 24 4.8 98.37   -20 Snow Showers
13:00 -10.4 -15.7 65   26 22 4.0 98.37   -19 Snow Showers
14:00 -10.0 -15.9 62   25 24 24.1 98.41   -19 Snow Showers
15:00 -9.4 -15.9 59   25 26 24.1 98.47   -18 Mostly Cloudy
16:00 -10.0 -15.7 63   26 22 24.1 98.52   -18 Mainly Clear
17:00 -10.6 -15.6 67   24 13 24.1 98.55   -17 Mainly Clear
18:00 -10.7 -16.3 63   25 17 15.0 98.58   -18  
19:00 -10.9 -16.3 64   24 13 15.0 98.60   -17  
20:00 -10.8 -16.4 63   24 13 15.0 98.63   -17  
21:00 -14.6 -18.6 72   19 7 15.0 98.62   -19  
22:00 -12.6 -17.3 68   18 4 15.0 98.61   -15  
23:00 -11.3 -15.7 70   23 9 15.0 98.58   -16  

Notes on Data Quality.

Legend

  • E = Estimated
  • M = Missing
  • NA = Not Available*
  • [empty] = Indicates an unobserved value
Date modified: